contact:dominique.lefevre@mio.osupytheas.fr, maurice.libes@osupytheas.fr, didier.mallarino@osupytheas.fr
Project:EMSO http://www.emso-fr.org/EMSO-France
Depth: 2436.0 m
Title:EMSO Ligure Ouest : Data MII capteur AQUADOPP
Date,Latitude,Longitude,X_East,Y_North,Z_Up,Amplitude_X,Amplitude_Y,Amplitude_Z,Batterie,SoundSpeed,Heading,Pitch,Roll,Pressure,TIS,Speed,Direction
, degrees North, degrees East, m.s-1, m.s-1,m.s-1, 1, 1, 1, Volt, m.s-1, degree, degree, degree, dbar, degree_C, m.s-1, degree
2019-08-28T00:01:43,42.805,6.029,-0.01,0.0,-0.073,101.0,105.0,99.0,13.4,1505.4,326.1,-0.7,1.8,2469.995,13.34,0.01,270.0
2019-08-28T00:04:44,42.805,6.029,-0.006,-0.015,-0.063,100.0,104.0,99.0,13.4,1505.4,326.1,-0.8,1.8,2470.035,13.34,0.016,201.8
2019-08-28T00:07:45,42.805,6.029,-0.027,0.0,-0.094,102.0,105.0,99.0,13.4,1505.4,323.5,-0.7,1.8,2470.045,13.34,0.026,270.0
2019-08-28T00:10:46,42.805,6.029,-0.013,-0.008,-0.025,102.0,105.0,99.0,13.4,1505.4,323.5,-0.7,1.8,2470.036,13.34,0.015,238.4
2019-08-28T00:13:47,42.805,6.029,-0.025,-0.003,-0.023,100.0,105.0,99.0,13.4,1505.4,324.1,-0.7,1.8,2469.99,13.34,0.025,263.2
2019-08-28T00:16:48,42.805,6.029,0.0,0.004,-0.004,104.0,105.0,99.0,13.4,1505.4,325.6,-0.7,1.8,2470.016,13.34,0.004,0.0
2019-08-28T00:19:49,42.805,6.029,-0.008,0.006,-0.005,100.0,104.0,99.0,13.3,1505.4,325.7,-0.7,1.9,2470.013,13.34,0.01,306.9
2019-08-28T00:22:50,42.805,6.029,-0.005,0.0,-0.028,103.0,105.0,98.0,13.4,1505.4,323.2,-0.7,1.8,2470.004,13.34,0.005,270.0
2019-08-28T00:25:51,42.805,6.029,0.014,0.007,0.008,104.0,107.0,99.0,13.4,1505.4,323.2,-0.7,1.8,2470.014,13.34,0.015,63.4
2019-08-28T00:28:52,42.805,6.029,0.063,0.005,0.009,102.0,107.0,99.0,13.4,1505.4,325.4,-0.7,1.8,2470.012,13.34,0.063,85.5
2019-08-28T00:31:53,42.805,6.029,0.011,-0.001,-0.025,100.0,105.0,99.0,13.4,1505.4,325.2,-0.7,1.8,2470.011,13.34,0.011,95.2
2019-08-28T00:34:54,42.805,6.029,0.044,-0.015,-0.026,103.0,110.0,97.0,13.4,1505.4,324.6,-0.7,1.8,2470.059,13.34,0.046,108.8
2019-08-28T00:37:55,42.805,6.029,0.002,-0.005,-0.041,101.0,107.0,99.0,13.4,1505.4,325.9,-0.7,1.9,2470.055,13.34,0.005,158.2
2019-08-28T00:40:56,42.805,6.029,-0.006,-0.004,-0.04,104.0,106.0,98.0,13.4,1505.4,328.4,-0.7,1.8,2469.994,13.34,0.007,236.3
2019-08-28T00:43:57,42.805,6.029,0.013,0.008,-0.012,101.0,109.0,100.0,13.4,1505.4,327.9,-0.7,1.8,2470.028,13.34,0.015,58.4
2019-08-28T00:46:58,42.805,6.029,0.017,0.012,0.03,102.0,109.0,97.0,13.4,1505.4,326.1,-0.7,1.8,2470.047,13.34,0.02,54.8
2019-08-28T00:49:59,42.805,6.029,-0.027,-0.004,-0.064,102.0,106.0,99.0,13.4,1505.4,326.5,-0.7,1.8,2470.019,13.34,0.027,261.6
2019-08-28T00:53:00,42.805,6.029,-0.006,0.002,-0.009,100.0,106.0,99.0,13.4,1505.4,327.6,-0.7,1.8,2470.044,13.34,0.006,288.4
2019-08-28T00:56:01,42.805,6.029,-0.005,-0.013,-0.057,103.0,104.0,99.0,13.4,1505.4,327.5,-0.7,1.8,2469.995,13.35,0.013,201.0
2019-08-28T00:59:02,42.805,6.029,0.003,0.005,-0.039,101.0,105.0,97.0,13.4,1505.4,328.6,-0.7,1.8,2470.028,13.34,0.005,31.0
2019-08-28T01:02:03,42.805,6.029,-0.039,0.019,-0.024,102.0,105.0,98.0,13.4,1505.4,328.1,-0.7,1.8,2470.033,13.34,0.043,296.0
2019-08-28T01:05:04,42.805,6.029,-0.028,-0.002,-0.072,101.0,104.0,98.0,13.4,1505.4,325.5,-0.8,1.8,2470.039,13.34,0.028,265.9
2019-08-28T01:08:05,42.805,6.029,-0.035,-0.002,-0.063,101.0,105.0,104.0,13.4,1505.4,327.9,-0.7,1.9,2470.018,13.34,0.035,266.7
2019-08-28T01:11:06,42.805,6.029,-0.012,0.007,-0.049,102.0,103.0,98.0,13.4,1505.4,325.7,-0.7,1.8,2470.018,13.34,0.013,300.3
2019-08-28T01:14:07,42.805,6.029,-0.01,-0.006,-0.026,103.0,102.0,98.0,13.4,1505.4,327.2,-0.7,1.8,2470.016,13.34,0.011,239.0
2019-08-28T01:17:08,42.805,6.029,-0.022,-0.001,-0.04,102.0,105.0,98.0,13.3,1505.4,326.9,-0.7,1.9,2469.995,13.34,0.022,267.4
2019-08-28T01:20:09,42.805,6.029,-0.017,0.005,-0.044,101.0,105.0,99.0,13.4,1505.4,327.9,-0.7,1.9,2470.036,13.35,0.017,286.4
2019-08-28T01:23:10,42.805,6.029,-0.042,-0.005,-0.048,102.0,105.0,100.0,13.4,1505.4,327.9,-0.8,1.8,2470.079,13.35,0.042,263.2
2019-08-28T01:26:11,42.805,6.029,-0.011,0.003,-0.062,105.0,105.0,96.0,13.4,1505.4,328.0,-0.7,1.8,2469.988,13.35,0.011,285.3
2019-08-28T01:29:12,42.805,6.029,0.002,0.011,-0.02,103.0,105.0,98.0,13.3,1505.4,327.3,-0.7,1.8,2470.026,13.35,0.011,10.3
2019-08-28T01:32:13,42.805,6.029,0.0,0.006,-0.004,102.0,105.0,100.0,13.3,1505.4,328.1,-0.7,1.8,2470.038,13.34,0.006,0.0
2019-08-28T01:35:14,42.805,6.029,-0.004,0.002,-0.02,102.0,104.0,104.0,13.4,1505.4,327.7,-0.7,1.8,2470.024,13.34,0.004,296.6
2019-08-28T01:38:15,42.805,6.029,0.013,0.016,-0.007,101.0,105.0,99.0,13.4,1505.4,324.1,-0.8,1.8,2469.984,13.34,0.02,39.1
2019-08-28T01:41:16,42.805,6.029,0.016,0.01,-0.011,101.0,105.0,101.0,13.3,1505.4,328.3,-0.7,1.8,2470.035,13.34,0.018,58.0
2019-08-28T01:44:17,42.805,6.029,-0.021,0.02,-0.035,103.0,104.0,100.0,13.4,1505.4,328.2,-0.7,1.9,2470.028,13.34,0.028,313.6
2019-08-28T01:47:18,42.805,6.029,0.007,0.018,-0.009,102.0,104.0,98.0,13.4,1505.4,328.2,-0.7,1.8,2470.07,13.34,0.019,21.2
2019-08-28T01:50:19,42.805,6.029,-0.018,0.019,-0.022,104.0,106.0,101.0,13.4,1505.4,325.8,-0.7,1.8,2470.042,13.34,0.026,316.5
2019-08-28T01:53:20,42.805,6.029,-0.015,0.022,-0.015,102.0,103.0,102.0,13.3,1505.4,326.8,-0.7,1.9,2470.062,13.34,0.026,325.7
2019-08-28T01:56:21,42.805,6.029,-0.006,0.0,-0.007,102.0,105.0,100.0,13.3,1505.4,324.5,-0.8,1.8,2470.057,13.34,0.006,270.0
2019-08-28T01:59:22,42.805,6.029,0.0,0.0,-0.024,103.0,106.0,99.0,13.3,1505.4,324.6,-0.7,1.9,2470.051,13.34,0.0,0.0
2019-08-28T02:02:23,42.805,6.029,-0.021,0.014,-0.034,102.0,105.0,97.0,13.4,1505.4,325.9,-0.7,1.8,2470.06,13.34,0.025,303.7
2019-08-28T02:05:24,42.805,6.029,0.0,0.005,-0.016,105.0,105.0,98.0,13.4,1505.4,323.7,-0.7,1.8,2470.062,13.34,0.005,0.0
2019-08-28T02:08:25,42.805,6.029,-0.022,-0.002,-0.069,100.0,105.0,100.0,13.4,1505.4,326.0,-0.7,1.8,2470.039,13.34,0.022,264.8
2019-08-28T02:11:26,42.805,6.029,-0.026,0.008,-0.055,102.0,106.0,100.0,13.4,1505.4,326.9,-0.7,1.8,2470.033,13.35,0.027,287.1
2019-08-28T02:14:27,42.805,6.029,-0.024,0.017,-0.042,102.0,106.0,99.0,13.4,1505.4,328.2,-0.7,1.9,2470.024,13.35,0.029,305.3
2019-08-28T02:17:28,42.805,6.029,-0.022,0.021,-0.028,103.0,105.0,99.0,13.3,1505.4,325.8,-0.7,1.8,2470.064,13.35,0.03,313.7
2019-08-28T02:20:29,42.805,6.029,-0.026,0.019,-0.04,102.0,106.0,99.0,13.3,1505.4,322.9,-0.7,1.8,2470.034,13.35,0.032,306.2
2019-08-28T02:23:30,42.805,6.029,-0.005,-0.004,-0.056,103.0,106.0,99.0,13.4,1505.4,325.0,-0.7,1.8,2470.065,13.35,0.006,231.3
2019-08-28T02:26:31,42.805,6.029,-0.017,0.012,-0.033,104.0,108.0,99.0,13.4,1505.4,324.0,-0.7,1.8,2470.057,13.35,0.02,305.2
2019-08-28T02:29:32,42.805,6.029,-0.006,0.03,-0.003,103.0,107.0,97.0,13.4,1505.4,325.1,-0.7,1.9,2470.098,13.35,0.03,348.7
2019-08-28T02:32:33,42.805,6.029,-0.006,0.006,-0.029,103.0,105.0,101.0,13.4,1505.4,323.8,-0.7,1.8,2470.094,13.34,0.008,315.0
2019-08-28T02:35:34,42.805,6.029,0.007,0.019,-0.008,103.0,106.0,98.0,13.3,1505.4,325.2,-0.7,1.8,2470.047,13.34,0.02,20.2
2019-08-28T02:38:35,42.805,6.029,-0.009,-0.004,-0.01,104.0,103.0,98.0,13.3,1505.4,324.6,-0.7,1.8,2470.035,13.34,0.009,246.0
2019-08-28T02:41:36,42.805,6.029,-0.003,0.0,-0.045,102.0,106.0,99.0,13.4,1505.4,324.6,-0.7,1.9,2470.056,13.34,0.003,270.0
2019-08-28T02:44:37,42.805,6.029,-0.005,0.008,-0.043,103.0,106.0,99.0,13.4,1505.4,326.2,-0.7,1.8,2470.058,13.34,0.009,328.0
2019-08-28T02:47:38,42.805,6.029,0.016,0.022,-0.013,102.0,106.0,102.0,13.4,1505.4,325.9,-0.7,1.8,2470.066,13.34,0.027,36.0
2019-08-28T02:50:39,42.805,6.029,-0.028,0.002,-0.037,102.0,107.0,99.0,13.4,1505.4,325.7,-0.7,1.9,2470.027,13.34,0.028,274.1
2019-08-28T02:53:40,42.805,6.029,0.014,0.032,0.003,102.0,105.0,98.0,13.4,1505.4,327.0,-0.7,1.8,2470.099,13.34,0.034,23.6
2019-08-28T02:56:41,42.805,6.029,-0.009,0.016,-0.018,102.0,107.0,100.0,13.4,1505.4,323.8,-0.7,1.8,2470.073,13.34,0.018,330.6
2019-08-28T02:59:42,42.805,6.029,0.001,0.021,-0.025,102.0,106.0,100.0,13.4,1505.4,326.4,-0.7,1.8,2470.088,13.34,0.021,2.7
2019-08-28T03:02:43,42.805,6.029,0.016,-0.016,-0.002,102.0,106.0,98.0,13.3,1505.4,324.5,-0.7,1.8,2470.112,13.34,0.022,135.0
2019-08-28T03:05:44,42.805,6.029,-0.002,0.005,-0.043,104.0,105.0,98.0,13.4,1505.4,328.1,-0.7,1.8,2470.061,13.34,0.005,338.2
2019-08-28T03:08:45,42.805,6.029,0.025,0.007,0.015,103.0,105.0,98.0,13.3,1505.4,326.5,-0.7,1.9,2470.038,13.34,0.025,74.4
2019-08-28T03:11:46,42.805,6.029,0.009,0.015,0.018,102.0,106.0,98.0,13.4,1505.4,326.9,-0.7,1.8,2470.054,13.34,0.017,31.0
2019-08-28T03:14:47,42.805,6.029,0.011,0.024,-0.001,102.0,107.0,98.0,13.4,1505.4,324.7,-0.7,1.8,2470.103,13.34,0.026,24.6
2019-08-28T03:17:48,42.805,6.029,0.01,0.002,-0.044,101.0,106.0,100.0,13.3,1505.4,328.2,-0.7,1.8,2470.053,13.34,0.01,78.7
2019-08-28T03:20:49,42.805,6.029,-0.004,0.0,0.024,103.0,106.0,99.0,13.4,1505.4,325.9,-0.7,1.8,2470.09,13.34,0.004,270.0
2019-08-28T03:23:50,42.805,6.029,0.038,0.012,0.001,104.0,107.0,97.0,13.4,1505.4,323.8,-0.7,1.8,2470.084,13.34,0.039,72.5
2019-08-28T03:26:51,42.805,6.029,0.02,0.008,0.002,101.0,106.0,99.0,13.3,1505.4,324.7,-0.7,1.8,2470.079,13.34,0.021,68.2
2019-08-28T03:29:52,42.805,6.029,0.037,0.022,0.023,102.0,106.0,98.0,13.4,1505.3,324.5,-0.7,1.9,2470.093,13.33,0.043,59.3
2019-08-28T03:32:53,42.805,6.029,-0.013,0.001,-0.047,102.0,107.0,99.0,13.4,1505.3,327.3,-0.7,1.8,2470.117,13.33,0.013,274.4
2019-08-28T03:35:54,42.805,6.029,-0.013,0.012,-0.046,102.0,107.0,99.0,13.4,1505.3,325.2,-0.7,1.8,2470.088,13.33,0.017,312.7
2019-08-28T03:38:55,42.805,6.029,-0.058,0.009,-0.082,101.0,106.0,98.0,13.4,1505.3,325.2,-0.7,1.8,2470.112,13.33,0.058,278.8
2019-08-28T03:41:56,42.805,6.029,0.015,0.007,-0.012,103.0,108.0,100.0,13.4,1505.3,327.7,-0.8,1.8,2470.13,13.33,0.016,65.0
2019-08-28T03:44:57,42.805,6.029,-0.008,0.007,-0.048,103.0,107.0,99.0,13.4,1505.3,325.4,-0.7,1.8,2470.115,13.33,0.01,311.2
2019-08-28T03:47:58,42.805,6.029,-0.038,0.008,-0.047,101.0,107.0,98.0,13.4,1505.3,326.9,-0.7,1.8,2470.127,13.33,0.038,281.9
2019-08-28T03:50:59,42.805,6.029,0.02,0.027,-0.012,101.0,108.0,99.0,13.4,1505.3,328.2,-0.7,1.8,2470.13,13.33,0.033,36.5
2019-08-28T03:54:00,42.805,6.029,0.039,0.011,0.009,103.0,106.0,99.0,13.4,1505.3,325.2,-0.7,1.8,2470.134,13.33,0.04,74.3
2019-08-28T03:57:01,42.805,6.029,-0.003,0.013,-0.026,103.0,107.0,98.0,13.4,1505.3,327.2,-0.7,1.8,2470.135,13.33,0.013,347.0
2019-08-28T04:00:02,42.805,6.029,-0.002,0.025,-0.016,102.0,107.0,99.0,13.4,1505.3,326.5,-0.7,1.9,2470.127,13.33,0.025,355.4
2019-08-28T04:03:03,42.805,6.029,-0.016,0.006,-0.035,101.0,108.0,99.0,13.4,1505.3,325.9,-0.7,1.9,2470.156,13.33,0.017,290.6
2019-08-28T04:06:04,42.805,6.029,-0.019,0.004,-0.012,103.0,112.0,100.0,13.4,1505.3,323.5,-0.7,1.9,2470.163,13.33,0.019,281.9
2019-08-28T04:09:05,42.805,6.029,0.022,0.01,0.004,103.0,109.0,99.0,13.3,1505.3,326.3,-0.7,1.9,2470.16,13.33,0.024,65.6
2019-08-28T04:12:06,42.805,6.029,0.005,0.009,-0.011,102.0,107.0,100.0,13.4,1505.3,326.4,-0.7,1.8,2470.144,13.33,0.01,29.1
2019-08-28T04:15:07,42.805,6.029,-0.012,0.001,-0.01,101.0,107.0,98.0,13.4,1505.3,326.3,-0.7,1.8,2470.142,13.33,0.012,274.8
2019-08-28T04:18:08,42.805,6.029,-0.027,0.01,-0.033,102.0,106.0,100.0,13.3,1505.3,325.7,-0.7,1.8,2470.158,13.33,0.028,290.3
2019-08-28T04:21:09,42.805,6.029,0.013,0.009,-0.025,102.0,107.0,99.0,13.4,1505.3,324.5,-0.7,1.8,2470.14,13.33,0.015,55.3
2019-08-28T04:24:10,42.805,6.029,0.007,0.015,-0.024,103.0,110.0,99.0,13.3,1505.3,325.8,-0.7,1.8,2470.151,13.33,0.016,25.0
2019-08-28T04:27:11,42.805,6.029,-0.005,0.02,-0.03,102.0,108.0,99.0,13.3,1505.3,327.6,-0.7,1.8,2470.125,13.33,0.02,346.0
2019-08-28T04:30:12,42.805,6.029,-0.019,0.029,-0.02,102.0,107.0,99.0,13.4,1505.3,328.5,-0.7,1.8,2470.155,13.33,0.034,326.8
2019-08-28T04:33:13,42.805,6.029,-0.002,0.001,-0.043,103.0,109.0,100.0,13.4,1505.3,326.2,-0.7,1.8,2470.18,13.33,0.002,296.6
2019-08-28T04:36:14,42.805,6.029,-0.004,0.027,-0.011,102.0,109.0,100.0,13.3,1505.3,323.0,-0.7,1.8,2470.159,13.33,0.027,351.6
2019-08-28T04:39:15,42.805,6.029,0.01,0.029,-0.033,103.0,110.0,100.0,13.4,1505.3,326.9,-0.7,1.8,2470.133,13.33,0.03,19.0
2019-08-28T04:42:16,42.805,6.029,0.0,0.02,-0.008,103.0,110.0,100.0,13.3,1505.3,324.5,-0.7,1.8,2470.155,13.33,0.02,0.0
2019-08-28T04:45:17,42.805,6.029,0.02,0.003,-0.008,102.0,110.0,100.0,13.4,1505.3,324.7,-0.7,1.8,2470.133,13.33,0.02,81.5
2019-08-28T04:48:18,42.805,6.029,0.016,0.013,0.012,103.0,111.0,99.0,13.4,1505.3,326.9,-0.7,1.9,2470.176,13.33,0.02,50.9
2019-08-28T04:51:19,42.805,6.029,-0.011,0.012,-0.044,104.0,112.0,99.0,13.4,1505.3,324.6,-0.7,1.9,2470.156,13.33,0.016,317.5
2019-08-28T04:54:20,42.805,6.029,0.033,0.023,-0.008,102.0,110.0,100.0,13.4,1505.3,325.6,-0.7,1.8,2470.178,13.33,0.04,55.1
2019-08-28T04:57:21,42.805,6.029,0.056,0.02,0.0,103.0,109.0,100.0,13.3,1505.3,326.9,-0.7,1.8,2470.144,13.33,0.059,70.4
2019-08-28T05:00:22,42.805,6.029,-0.002,0.01,-0.039,103.0,111.0,99.0,13.4,1505.3,323.9,-0.7,1.8,2470.176,13.33,0.01,348.7
2019-08-28T05:03:23,42.805,6.029,0.017,0.0,-0.006,103.0,111.0,100.0,13.4,1505.3,324.7,-0.7,1.8,2470.18,13.33,0.017,90.0
2019-08-28T05:06:24,42.805,6.029,-0.007,0.022,-0.038,103.0,111.0,100.0,13.4,1505.3,327.6,-0.7,1.8,2470.159,13.33,0.023,342.4
2019-08-28T05:09:25,42.805,6.029,0.017,0.031,-0.011,103.0,110.0,100.0,13.3,1505.3,323.1,-0.7,1.9,2470.132,13.33,0.035,28.7
2019-08-28T05:12:26,42.805,6.029,-0.018,-0.006,-0.036,102.0,112.0,99.0,13.3,1505.3,326.1,-0.7,1.8,2470.181,13.33,0.018,251.6
2019-08-28T05:15:27,42.805,6.029,-0.025,0.013,-0.022,104.0,110.0,99.0,13.3,1505.3,326.9,-0.7,1.8,2470.172,13.33,0.028,297.5
2019-08-28T05:18:28,42.805,6.029,-0.031,0.02,-0.056,103.0,112.0,99.0,13.3,1505.3,328.5,-0.7,1.8,2470.175,13.33,0.036,302.8
2019-08-28T05:21:29,42.805,6.029,-0.03,0.022,-0.064,101.0,112.0,99.0,13.3,1505.3,324.1,-0.7,1.8,2470.137,13.33,0.037,306.3
2019-08-28T05:24:30,42.805,6.029,0.015,0.021,-0.019,102.0,112.0,100.0,13.4,1505.3,328.6,-0.8,1.8,2470.148,13.33,0.025,35.5
2019-08-28T05:27:31,42.805,6.029,-0.006,-0.001,0.007,102.0,111.0,98.0,13.3,1505.3,327.1,-0.7,1.8,2470.173,13.33,0.006,260.5
2019-08-28T05:30:32,42.805,6.029,0.0,0.005,-0.025,104.0,110.0,99.0,13.4,1505.3,326.2,-0.7,1.8,2470.117,13.33,0.005,0.0
2019-08-28T05:33:33,42.805,6.029,-0.03,0.012,-0.058,103.0,110.0,100.0,13.4,1505.3,325.6,-0.7,1.8,2470.14,13.33,0.032,291.8
2019-08-28T05:36:34,42.805,6.029,0.01,0.015,-0.048,103.0,110.0,100.0,13.4,1505.3,324.6,-0.7,1.8,2470.12,13.33,0.018,33.7
2019-08-28T05:39:35,42.805,6.029,-0.023,0.004,-0.043,103.0,111.0,100.0,13.4,1505.3,324.2,-0.7,1.9,2470.153,13.33,0.023,279.9
2019-08-28T05:42:36,42.805,6.029,0.004,0.021,-0.053,103.0,110.0,100.0,13.4,1505.3,325.2,-0.7,1.8,2470.133,13.33,0.021,10.8
2019-08-28T05:45:37,42.805,6.029,-0.007,0.009,-0.039,102.0,111.0,99.0,13.4,1505.3,324.2,-0.7,1.8,2470.167,13.33,0.011,322.1
2019-08-28T05:48:38,42.805,6.029,-0.009,0.003,-0.004,103.0,110.0,100.0,13.3,1505.3,328.2,-0.7,1.8,2470.184,13.33,0.009,288.4
2019-08-28T05:51:39,42.805,6.029,0.003,0.003,-0.03,103.0,115.0,100.0,13.4,1505.3,327.7,-0.7,1.8,2470.176,13.33,0.004,45.0
2019-08-28T05:54:40,42.805,6.029,0.006,0.005,-0.023,104.0,110.0,100.0,13.4,1505.3,327.0,-0.8,1.8,2470.169,13.33,0.007,50.2
2019-08-28T05:57:41,42.805,6.029,-0.014,0.006,-0.058,104.0,110.0,99.0,13.4,1505.3,324.9,-0.7,1.8,2470.155,13.33,0.015,293.2
2019-08-28T06:00:42,42.805,6.029,0.0,0.016,-0.023,102.0,110.0,99.0,13.3,1505.3,325.3,-0.7,1.8,2470.196,13.33,0.016,0.0
2019-08-28T06:03:43,42.805,6.029,0.004,0.01,-0.037,102.0,111.0,100.0,13.4,1505.3,325.9,-0.7,1.8,2470.14,13.33,0.01,21.8
2019-08-28T06:06:44,42.805,6.029,0.008,0.024,-0.007,103.0,111.0,101.0,13.4,1505.3,327.1,-0.7,1.8,2470.158,13.33,0.025,18.4
2019-08-28T06:09:45,42.805,6.029,0.006,0.018,-0.026,103.0,112.0,101.0,13.4,1505.3,325.3,-0.7,1.8,2470.173,13.32,0.018,18.4
2019-08-28T06:12:46,42.805,6.029,-0.015,0.008,-0.028,104.0,111.0,99.0,13.4,1505.3,327.8,-0.8,1.8,2470.087,13.32,0.017,298.1
2019-08-28T06:15:47,42.805,6.029,0.038,0.02,-0.02,103.0,112.0,100.0,13.3,1505.3,326.3,-0.7,1.9,2470.135,13.32,0.042,62.2
2019-08-28T06:18:48,42.805,6.029,0.015,0.033,-0.015,101.0,112.0,100.0,13.4,1505.3,326.1,-0.7,1.8,2470.164,13.32,0.036,24.4
2019-08-28T06:21:49,42.805,6.029,0.0,0.006,-0.001,104.0,113.0,99.0,13.4,1505.3,326.0,-0.7,1.8,2470.193,13.32,0.006,0.0
2019-08-28T06:24:50,42.805,6.029,0.06,0.023,0.019,103.0,111.0,100.0,13.4,1505.3,325.1,-0.7,1.9,2470.147,13.32,0.064,69.0
2019-08-28T06:27:51,42.805,6.029,-0.015,0.018,0.01,103.0,111.0,100.0,13.4,1505.3,324.6,-0.7,1.8,2470.157,13.32,0.023,320.2
2019-08-28T06:30:52,42.805,6.029,0.0,0.014,-0.023,103.0,110.0,100.0,13.3,1505.3,326.0,-0.7,1.9,2470.162,13.32,0.014,0.0
2019-08-28T06:33:53,42.805,6.029,0.046,0.013,-0.012,102.0,112.0,99.0,13.3,1505.3,325.3,-0.7,1.8,2470.154,13.32,0.047,74.2
2019-08-28T06:36:54,42.805,6.029,0.012,0.007,-0.028,102.0,112.0,99.0,13.3,1505.3,324.7,-0.7,1.8,2470.11,13.32,0.013,59.7
2019-08-28T06:39:55,42.805,6.029,0.02,0.035,0.001,102.0,111.0,99.0,13.4,1505.3,324.5,-0.7,1.9,2470.163,13.32,0.04,29.7
2019-08-28T06:42:56,42.805,6.029,0.031,0.016,-0.002,103.0,112.0,100.0,13.4,1505.3,325.8,-0.7,1.8,2470.144,13.32,0.034,62.7
2019-08-28T06:45:57,42.805,6.029,0.023,0.005,0.005,103.0,112.0,99.0,13.3,1505.3,327.1,-0.7,1.9,2470.19,13.32,0.023,77.7
2019-08-28T06:48:58,42.805,6.029,0.012,0.021,-0.029,103.0,112.0,101.0,13.4,1505.3,327.5,-0.7,1.9,2470.131,13.32,0.024,29.7
2019-08-28T06:51:59,42.805,6.029,0.044,-0.001,0.0,104.0,112.0,100.0,13.4,1505.3,326.8,-0.7,1.8,2470.11,13.32,0.044,91.3
2019-08-28T06:55:00,42.805,6.029,0.03,0.007,-0.008,102.0,112.0,101.0,13.3,1505.3,326.3,-0.7,1.9,2470.102,13.32,0.03,76.9
2019-08-28T06:58:01,42.805,6.029,0.029,0.029,-0.012,105.0,112.0,100.0,13.4,1505.3,324.5,-0.7,1.9,2470.105,13.32,0.041,45.0
2019-08-28T07:01:02,42.805,6.029,0.032,0.028,0.014,102.0,111.0,99.0,13.3,1505.3,325.4,-0.7,1.8,2470.097,13.32,0.042,48.8
2019-08-28T07:04:03,42.805,6.029,0.041,0.02,-0.008,101.0,111.0,100.0,13.3,1505.3,327.2,-0.7,1.8,2470.108,13.32,0.045,64.0
2019-08-28T07:07:04,42.805,6.029,0.026,0.029,-0.014,103.0,112.0,100.0,13.4,1505.3,325.2,-0.7,1.8,2470.119,13.32,0.038,41.9
2019-08-28T07:10:05,42.805,6.029,0.009,0.013,-0.016,103.0,113.0,99.0,13.4,1505.3,323.0,-0.7,1.8,2470.11,13.32,0.015,34.7
2019-08-28T07:13:06,42.805,6.029,0.032,0.026,-0.006,104.0,111.0,98.0,13.4,1505.3,328.3,-0.7,1.9,2470.094,13.32,0.041,50.9
2019-08-28T07:16:07,42.805,6.029,-0.004,0.037,-0.033,102.0,113.0,100.0,13.4,1505.3,328.2,-0.7,1.8,2470.137,13.32,0.037,353.8
2019-08-28T07:19:08,42.805,6.029,0.008,0.022,-0.015,103.0,112.0,100.0,13.3,1505.3,326.7,-0.7,1.9,2470.122,13.32,0.023,20.0
2019-08-28T07:22:09,42.805,6.029,0.008,0.011,-0.016,102.0,113.0,99.0,13.4,1505.3,325.7,-0.7,1.8,2470.124,13.32,0.013,36.0
2019-08-28T07:25:10,42.805,6.029,0.015,0.016,-0.02,103.0,111.0,103.0,13.4,1505.3,325.6,-0.7,1.9,2470.076,13.32,0.021,43.1
2019-08-28T07:28:11,42.805,6.029,0.026,0.021,-0.023,103.0,113.0,99.0,13.4,1505.3,326.1,-0.7,1.8,2470.104,13.32,0.033,51.1
2019-08-28T07:31:12,42.805,6.029,0.021,0.025,-0.004,102.0,112.0,99.0,13.3,1505.3,328.1,-0.7,1.8,2470.14,13.32,0.032,40.0
2019-08-28T07:34:13,42.805,6.029,-0.008,0.017,-0.021,102.0,112.0,99.0,13.3,1505.3,328.1,-0.7,1.8,2470.141,13.32,0.018,334.8
2019-08-28T07:37:14,42.805,6.029,0.01,0.013,-0.003,103.0,113.0,99.0,13.4,1505.3,327.8,-0.7,1.8,2470.077,13.32,0.016,37.6
2019-08-28T07:40:15,42.805,6.029,0.028,-0.002,-0.027,103.0,111.0,99.0,13.4,1505.3,328.3,-0.7,1.9,2470.14,13.32,0.028,94.1
2019-08-28T07:43:16,42.805,6.029,0.02,0.024,-0.026,101.0,112.0,100.0,13.3,1505.3,327.9,-0.7,1.8,2470.084,13.32,0.031,39.8
2019-08-28T07:46:17,42.805,6.029,0.052,0.003,-0.003,103.0,113.0,100.0,13.4,1505.3,328.3,-0.7,1.8,2470.108,13.32,0.052,86.7
2019-08-28T07:49:18,42.805,6.029,-0.002,0.015,-0.034,103.0,113.0,99.0,13.4,1505.3,326.9,-0.7,1.9,2470.06,13.32,0.015,352.4
2019-08-28T07:52:19,42.805,6.029,0.043,0.025,-0.006,104.0,115.0,100.0,13.4,1505.3,324.8,-0.7,1.8,2470.077,13.32,0.049,59.8
2019-08-28T07:55:20,42.805,6.029,-0.005,0.026,-0.039,103.0,112.0,101.0,13.4,1505.3,325.5,-0.7,1.8,2470.04,13.32,0.026,349.1
2019-08-28T07:58:21,42.805,6.029,0.035,0.0,-0.024,103.0,112.0,101.0,13.3,1505.3,325.6,-0.7,1.8,2470.083,13.32,0.035,90.0
2019-08-28T08:01:22,42.805,6.029,-0.003,0.015,-0.033,104.0,112.0,100.0,13.4,1505.3,323.2,-0.7,1.8,2470.065,13.32,0.015,348.7
2019-08-28T08:04:23,42.805,6.029,0.016,-0.007,-0.019,103.0,111.0,100.0,13.4,1505.3,327.5,-0.7,1.8,2470.084,13.32,0.017,113.6
2019-08-28T08:07:24,42.805,6.029,0.013,0.002,-0.016,103.0,110.0,100.0,13.4,1505.3,327.9,-0.7,1.8,2470.059,13.32,0.013,81.3
2019-08-28T08:10:25,42.805,6.029,0.018,0.005,-0.031,103.0,111.0,99.0,13.4,1505.3,324.8,-0.7,1.8,2470.055,13.32,0.018,74.5
2019-08-28T08:13:26,42.805,6.029,0.026,0.01,-0.012,104.0,113.0,100.0,13.4,1505.3,326.1,-0.7,1.8,2470.095,13.32,0.027,69.0
2019-08-28T08:16:27,42.805,6.029,0.018,0.013,-0.03,102.0,113.0,100.0,13.4,1505.3,323.6,-0.8,1.8,2470.065,13.32,0.022,54.2
2019-08-28T08:19:28,42.805,6.029,0.012,0.009,-0.025,104.0,111.0,100.0,13.4,1505.3,326.5,-0.7,1.8,2470.081,13.32,0.015,53.1
2019-08-28T08:22:29,42.805,6.029,0.024,0.024,-0.022,103.0,111.0,99.0,13.4,1505.3,324.2,-0.7,1.8,2470.062,13.32,0.033,45.0
2019-08-28T08:25:30,42.805,6.029,0.001,0.004,-0.011,103.0,111.0,99.0,13.3,1505.3,323.9,-0.7,1.8,2470.063,13.32,0.004,14.0
2019-08-28T08:28:31,42.805,6.029,0.042,0.008,0.004,103.0,111.0,99.0,13.4,1505.3,328.2,-0.7,1.8,2470.079,13.32,0.042,79.2
2019-08-28T08:31:32,42.805,6.029,0.029,0.015,-0.013,103.0,111.0,99.0,13.3,1505.3,326.7,-0.7,1.8,2470.113,13.32,0.032,62.6
2019-08-28T08:34:33,42.805,6.029,0.054,0.023,-0.012,104.0,114.0,99.0,13.4,1505.3,326.8,-0.7,1.8,2470.07,13.32,0.058,66.9
2019-08-28T08:37:34,42.805,6.029,0.045,0.001,-0.021,104.0,113.0,98.0,13.3,1505.3,327.1,-0.7,1.8,2470.054,13.32,0.045,88.7
2019-08-28T08:40:35,42.805,6.029,0.018,0.024,-0.01,103.0,111.0,100.0,13.3,1505.3,325.9,-0.7,1.9,2470.096,13.32,0.03,36.9
2019-08-28T08:43:36,42.805,6.029,0.022,0.011,-0.005,102.0,114.0,100.0,13.4,1505.3,327.5,-0.7,1.9,2470.098,13.32,0.024,63.4
2019-08-28T08:46:37,42.805,6.029,0.042,0.013,-0.006,103.0,110.0,100.0,13.3,1505.3,324.5,-0.7,1.9,2470.066,13.32,0.043,72.8
2019-08-28T08:49:38,42.805,6.029,0.038,0.023,-0.029,103.0,113.0,99.0,13.4,1505.3,323.0,-0.7,1.8,2470.084,13.32,0.044,58.8
2019-08-28T08:52:39,42.805,6.029,0.034,0.015,-0.007,103.0,112.0,98.0,13.4,1505.3,324.3,-0.7,1.8,2470.059,13.32,0.037,66.2
2019-08-28T08:55:40,42.805,6.029,0.012,0.019,-0.039,103.0,110.0,100.0,13.4,1505.3,326.6,-0.7,1.9,2470.086,13.32,0.022,32.3
2019-08-28T08:58:41,42.805,6.029,0.035,0.0,0.0,103.0,109.0,100.0,13.3,1505.3,328.6,-0.6,1.9,2470.082,13.32,0.035,90.0
2019-08-28T09:01:42,42.805,6.029,0.045,0.026,-0.015,103.0,109.0,101.0,13.4,1505.3,326.5,-0.7,1.8,2470.008,13.32,0.051,60.0
2019-08-28T09:04:43,42.805,6.029,0.023,0.019,-0.039,101.0,112.0,99.0,13.4,1505.3,326.7,-0.7,1.8,2470.077,13.32,0.029,50.4
2019-08-28T09:07:44,42.805,6.029,0.04,0.027,-0.014,101.0,114.0,98.0,13.4,1505.3,326.4,-0.7,1.8,2470.038,13.32,0.048,56.0
2019-08-28T09:10:45,42.805,6.029,0.018,0.021,-0.016,101.0,114.0,98.0,13.3,1505.3,327.4,-0.7,1.8,2470.072,13.32,0.027,40.6
2019-08-28T09:13:46,42.805,6.029,0.026,0.016,-0.037,102.0,113.0,99.0,13.3,1505.3,323.9,-0.7,1.8,2470.006,13.32,0.03,58.4
2019-08-28T09:16:47,42.805,6.029,0.012,0.023,-0.019,101.0,112.0,99.0,13.3,1505.3,326.7,-0.7,1.8,2470.078,13.32,0.025,27.6
2019-08-28T09:19:48,42.805,6.029,0.005,0.021,-0.04,103.0,111.0,99.0,13.4,1505.3,325.2,-0.7,1.8,2470.042,13.32,0.021,13.4
2019-08-28T09:22:49,42.805,6.029,0.024,0.008,-0.017,102.0,112.0,98.0,13.4,1505.3,328.5,-0.7,1.8,2470.041,13.32,0.025,71.6
2019-08-28T09:25:50,42.805,6.029,0.019,0.024,-0.034,103.0,111.0,98.0,13.4,1505.3,323.8,-0.7,1.8,2470.062,13.32,0.03,38.4
2019-08-28T09:28:51,42.805,6.029,0.035,0.014,-0.018,103.0,111.0,99.0,13.3,1505.3,324.1,-0.7,1.8,2470.043,13.32,0.037,68.2
2019-08-28T09:31:52,42.805,6.029,0.036,0.015,0.015,103.0,110.0,99.0,13.4,1505.3,324.7,-0.7,1.8,2470.043,13.32,0.039,67.4
2019-08-28T09:34:53,42.805,6.029,0.035,0.028,-0.006,100.0,112.0,99.0,13.4,1505.3,326.5,-0.7,1.8,2470.066,13.32,0.044,51.3
2019-08-28T09:37:54,42.805,6.029,0.003,0.019,-0.055,102.0,111.0,97.0,13.4,1505.3,327.2,-0.7,1.9,2470.06,13.32,0.019,9.0